International Skating Union - Official Site

ISU World Cup Salt Lake City
November 20-22, 2015

Draw | Lap Times | Index | World Cup

Referee: Dan  IMMERFALL  (USA)
Starter: Brad  BATES  (CAN)
StartTime: EndTime: Air Temp: Ice Temp: Humidity:
18:07 19:56 16.5℃ -12.3℃ 18%
Result 10000m Men Division B
Rankings as of Nov 22 2015 4:19PM
Rank: No.: Name: Nation: Time: Behind: Points:
1 81 Bob  de Vries NED NED 12:43.57400m - 34.72 - (34.7)
800m - 1:04.50 - (29.7)
1200m - 1:34.84 - (30.3)
1600m - 2:05.04 - (30.2)
2000m - 2:35.21 - (30.1)
2400m - 3:05.37 - (30.1)
2800m - 3:35.72 - (30.3)
3200m - 4:05.90 - (30.1)
3600m - 4:35.95 - (30.0)
4000m - 5:06.03 - (30.0)
4400m - 5:36.45 - (30.4)
4800m - 6:06.93 - (30.4)
5200m - 6:37.44 - (30.5)
5600m - 7:07.71 - (30.2)
6000m - 7:37.95 - (30.2)
6400m - 8:08.08 - (30.1)
6800m - 8:37.85 - (29.7)
7200m - 9:07.81 - (29.9)
7600m - 9:38.82 - (31.0)
8000m - 10:10.08 - (31.2)
8400m - 10:40.72 - (30.6)
8800m - 11:11.14 - (30.4)
9200m - 11:41.87 - (30.7)
9600m - 12:12.69 - (30.8)
10000m - 12:43.57 - (30.8)
32
2 92 Arjan  Stroetinga NED NED 12:51.92400m - 34.23 - (34.2)
800m - 1:04.44 - (30.2)
1200m - 1:35.14 - (30.7)
1600m - 2:05.73 - (30.5)
2000m - 2:36.41 - (30.6)
2400m - 3:07.03 - (30.6)
2800m - 3:37.90 - (30.8)
3200m - 4:08.67 - (30.7)
3600m - 4:39.43 - (30.7)
4000m - 5:10.13 - (30.6)
4400m - 5:40.69 - (30.5)
4800m - 6:11.16 - (30.4)
5200m - 6:41.74 - (30.5)
5600m - 7:12.22 - (30.4)
6000m - 7:42.78 - (30.5)
6400m - 8:13.48 - (30.7)
6800m - 8:44.12 - (30.6)
7200m - 9:14.86 - (30.7)
7600m - 9:45.65 - (30.7)
8000m - 10:16.33 - (30.6)
8400m - 10:47.15 - (30.8)
8800m - 11:18.11 - (30.9)
9200m - 11:49.18 - (31.0)
9600m - 12:20.55 - (31.3)
10000m - 12:51.92 - (31.3)
8.35 27
3 39 Moritz  Geisreiter GER GER 12:55.47400m - 34.48 - (34.4)
800m - 1:04.93 - (30.4)
1200m - 1:36.32 - (31.3)
1600m - 2:07.43 - (31.1)
2000m - 2:38.29 - (30.8)
2400m - 3:09.16 - (30.8)
2800m - 3:40.31 - (31.1)
3200m - 4:11.28 - (30.9)
3600m - 4:42.21 - (30.9)
4000m - 5:12.86 - (30.6)
4400m - 5:43.73 - (30.8)
4800m - 6:14.38 - (30.6)
5200m - 6:45.09 - (30.7)
5600m - 7:15.99 - (30.9)
6000m - 7:47.24 - (31.2)
6400m - 8:18.46 - (31.2)
6800m - 8:49.33 - (30.8)
7200m - 9:20.19 - (30.8)
7600m - 9:51.10 - (30.9)
8000m - 10:22.04 - (30.9)
8400m - 10:53.02 - (30.9)
8800m - 11:24.08 - (31.0)
9200m - 11:54.94 - (30.8)
9600m - 12:25.56 - (30.6)
10000m - 12:55.47 - (29.9)
11.90 23
4 94 Håvard  Bøkko NOR NOR 13:01.54400m - 34.01 - (34.0)
800m - 1:04.36 - (30.3)
1200m - 1:35.10 - (30.7)
1600m - 2:06.25 - (31.1)
2000m - 2:37.31 - (31.0)
2400m - 3:08.46 - (31.1)
2800m - 3:39.85 - (31.3)
3200m - 4:11.46 - (31.6)
3600m - 4:43.01 - (31.5)
4000m - 5:14.37 - (31.3)
4400m - 5:45.83 - (31.4)
4800m - 6:17.29 - (31.4)
5200m - 6:48.58 - (31.2)
5600m - 7:19.83 - (31.2)
6000m - 7:51.11 - (31.2)
6400m - 8:22.43 - (31.3)
6800m - 8:53.33 - (30.9)
7200m - 9:24.30 - (30.9)
7600m - 9:55.20 - (30.9)
8000m - 10:25.86 - (30.6)
8400m - 10:56.71 - (30.8)
8800m - 11:27.84 - (31.1)
9200m - 11:58.91 - (31.0)
9600m - 12:30.08 - (31.1)
10000m - 13:01.54 - (31.4)
17.97 19
5 75 Seung-Hoon  Lee KOR KOR 13:01.78400m - 35.45 - (35.4)
800m - 1:05.90 - (30.4)
1200m - 1:36.49 - (30.5)
1600m - 2:07.42 - (30.9)
2000m - 2:38.42 - (30.9)
2400m - 3:09.25 - (30.8)
2800m - 3:40.01 - (30.7)
3200m - 4:11.15 - (31.1)
3600m - 4:42.07 - (30.9)
4000m - 5:12.95 - (30.8)
4400m - 5:43.72 - (30.7)
4800m - 6:14.59 - (30.8)
5200m - 6:45.54 - (30.9)
5600m - 7:16.79 - (31.2)
6000m - 7:47.77 - (30.9)
6400m - 8:19.27 - (31.5)
6800m - 8:50.97 - (31.7)
7200m - 9:22.85 - (31.8)
7600m - 9:54.78 - (31.9)
8000m - 10:26.78 - (32.0)
8400m - 10:58.57 - (31.7)
8800m - 11:30.33 - (31.7)
9200m - 12:01.94 - (31.6)
9600m - 12:31.75 - (29.8)
10000m - 13:01.78 - (30.0)
18.21 15
6 62 Dmitry  Babenko KAZ KAZ 13:13.80400m - 34.20 - (34.2)
800m - 1:05.50 - (31.2)
1200m - 1:37.24 - (31.7)
1600m - 2:09.27 - (32.0)
2000m - 2:40.98 - (31.7)
2400m - 3:12.41 - (31.4)
2800m - 3:43.79 - (31.3)
3200m - 4:15.30 - (31.5)
3600m - 4:46.98 - (31.6)
4000m - 5:18.67 - (31.6)
4400m - 5:50.32 - (31.6)
4800m - 6:21.93 - (31.6)
5200m - 6:53.57 - (31.6)
5600m - 7:25.48 - (31.9)
6000m - 7:57.83 - (32.3)
6400m - 8:29.91 - (32.0)
6800m - 9:01.78 - (31.8)
7200m - 9:33.58 - (31.8)
7600m - 10:05.16 - (31.5)
8000m - 10:36.80 - (31.6)
8400m - 11:08.57 - (31.7)
8800m - 11:40.12 - (31.5)
9200m - 12:11.91 - (31.7)
9600m - 12:43.13 - (31.2)
10000m - 13:13.80 - (30.6)
30.23 11
7 116 Yevgeny  Seryaev RUS RUS 13:16.60400m - 35.14 - (35.1)
800m - 1:05.79 - (30.6)
1200m - 1:36.91 - (31.1)
1600m - 2:08.01 - (31.0)
2000m - 2:39.14 - (31.1)
2400m - 3:10.11 - (30.9)
2800m - 3:41.11 - (31.0)
3200m - 4:12.53 - (31.4)
3600m - 4:44.00 - (31.4)
4000m - 5:15.43 - (31.4)
4400m - 5:47.11 - (31.6)
4800m - 6:18.90 - (31.7)
5200m - 6:50.58 - (31.6)
5600m - 7:22.39 - (31.8)
6000m - 7:54.39 - (32.0)
6400m - 8:26.32 - (31.9)
6800m - 8:58.08 - (31.7)
7200m - 9:29.95 - (31.8)
7600m - 10:01.84 - (31.8)
8000m - 10:34.04 - (32.1)
8400m - 11:06.11 - (32.0)
8800m - 11:38.38 - (32.2)
9200m - 12:10.82 - (32.4)
9600m - 12:43.51 - (32.6)
10000m - 13:16.60 - (33.0)
33.03 9
8 7 Vitaly  Mikhailov BLR BLR 13:19.59400m - 36.89 - (36.8)
800m - 1:09.27 - (32.3)
1200m - 1:40.43 - (31.1)
1600m - 2:12.22 - (31.7)
2000m - 2:43.98 - (31.7)
2400m - 3:15.97 - (31.9)
2800m - 3:47.71 - (31.7)
3200m - 4:19.48 - (31.7)
3600m - 4:51.20 - (31.7)
4000m - 5:22.95 - (31.7)
4400m - 5:54.72 - (31.7)
4800m - 6:26.58 - (31.8)
5200m - 6:58.55 - (31.9)
5600m - 7:30.74 - (32.1)
6000m - 8:02.78 - (32.0)
6400m - 8:34.63 - (31.8)
6800m - 9:06.67 - (32.0)
7200m - 9:38.76 - (32.0)
7600m - 10:10.16 - (31.3)
8000m - 10:41.45 - (31.2)
8400m - 11:12.58 - (31.1)
8800m - 11:44.14 - (31.5)
9200m - 12:16.16 - (32.0)
9600m - 12:48.10 - (31.9)
10000m - 13:19.59 - (31.4)
36.02 7
9 19 Stefan  Waples CAN CAN 13:21.48400m - 34.44 - (34.4)
800m - 1:04.93 - (30.4)
1200m - 1:36.10 - (31.1)
1600m - 2:08.06 - (31.9)
2000m - 2:40.12 - (32.0)
2400m - 3:12.03 - (31.9)
2800m - 3:43.43 - (31.4)
3200m - 4:15.28 - (31.8)
3600m - 4:46.65 - (31.3)
4000m - 5:18.56 - (31.9)
4400m - 5:50.38 - (31.8)
4800m - 6:22.26 - (31.8)
5200m - 6:53.91 - (31.6)
5600m - 7:26.00 - (32.0)
6000m - 7:58.29 - (32.2)
6400m - 8:30.77 - (32.4)
6800m - 9:03.15 - (32.3)
7200m - 9:35.29 - (32.1)
7600m - 10:07.48 - (32.1)
8000m - 10:39.67 - (32.1)
8400m - 11:11.96 - (32.2)
8800m - 11:44.24 - (32.2)
9200m - 12:16.45 - (32.2)
9600m - 12:48.87 - (32.4)
10000m - 13:21.48 - (32.6)
37.91 6
10 31 Viktor-Hald  Thorup DEN DEN 13:25.30400m - 37.47 - (37.4)
800m - 1:08.99 - (31.5)
1200m - 1:40.98 - (31.9)
1600m - 2:12.93 - (31.9)
2000m - 2:44.76 - (31.8)
2400m - 3:16.58 - (31.8)
2800m - 3:48.54 - (31.9)
3200m - 4:20.28 - (31.7)
3600m - 4:51.99 - (31.7)
4000m - 5:23.81 - (31.8)
4400m - 5:55.94 - (32.1)
4800m - 6:27.75 - (31.8)
5200m - 6:59.80 - (32.0)
5600m - 7:31.87 - (32.0)
6000m - 8:03.74 - (31.8)
6400m - 8:35.29 - (31.5)
6800m - 9:06.89 - (31.6)
7200m - 9:38.55 - (31.6)
7600m - 10:10.42 - (31.8)
8000m - 10:42.38 - (31.9)
8400m - 11:14.77 - (32.3)
8800m - 11:47.10 - (32.3)
9200m - 12:19.85 - (32.7)
9600m - 12:52.80 - (32.9)
10000m - 13:25.30 - (32.5)
41.73 5
11 59 Shane  Williamson JPN JPN 13:25.69400m - 35.78 - (35.7)
800m - 1:08.02 - (32.2)
1200m - 1:40.34 - (32.3)
1600m - 2:12.72 - (32.3)
2000m - 2:44.62 - (31.9)
2400m - 3:16.71 - (32.0)
2800m - 3:48.52 - (31.8)
3200m - 4:20.80 - (32.2)
3600m - 4:52.77 - (31.9)
4000m - 5:25.01 - (32.2)
4400m - 5:57.20 - (32.1)
4800m - 6:29.30 - (32.1)
5200m - 7:01.42 - (32.1)
5600m - 7:33.58 - (32.1)
6000m - 8:05.74 - (32.1)
6400m - 8:37.80 - (32.0)
6800m - 9:09.71 - (31.9)
7200m - 9:42.04 - (32.3)
7600m - 10:14.17 - (32.1)
8000m - 10:46.69 - (32.5)
8400m - 11:19.20 - (32.5)
8800m - 11:51.27 - (32.0)
9200m - 12:23.01 - (31.7)
9600m - 12:54.50 - (31.4)
10000m - 13:25.69 - (31.1)
42.12 4
12 55 Takuro  Ogawa JPN JPN 13:27.79400m - 34.70 - (34.7)
800m - 1:04.57 - (29.8)
1200m - 1:34.52 - (29.9)
1600m - 2:04.81 - (30.2)
2000m - 2:35.16 - (30.3)
2400m - 3:05.98 - (30.8)
2800m - 3:37.00 - (31.0)
3200m - 4:08.41 - (31.4)
3600m - 4:39.97 - (31.5)
4000m - 5:12.06 - (32.0)
4400m - 5:44.33 - (32.2)
4800m - 6:17.03 - (32.6)
5200m - 6:50.28 - (33.2)
5600m - 7:23.79 - (33.5)
6000m - 7:57.12 - (33.3)
6400m - 8:29.93 - (32.8)
6800m - 9:02.94 - (33.0)
7200m - 9:36.53 - (33.5)
7600m - 10:10.36 - (33.8)
8000m - 10:42.50 - (32.1)
8400m - 11:14.18 - (31.6)
8800m - 11:46.42 - (32.2)
9200m - 12:19.19 - (32.7)
9600m - 12:52.41 - (33.2)
10000m - 13:27.79 - (35.3)
44.22 3
13 111 Sergey  Gryaztsov RUS RUS 13:31.06400m - 35.34 - (35.3)
800m - 1:07.24 - (31.8)
1200m - 1:39.43 - (32.1)
1600m - 2:12.31 - (32.8)
2000m - 2:44.59 - (32.2)
2400m - 3:16.99 - (32.4)
2800m - 3:49.13 - (32.1)
3200m - 4:22.38 - (33.2)
3600m - 4:54.87 - (32.4)
4000m - 5:27.42 - (32.5)
4400m - 5:59.70 - (32.2)
4800m - 6:31.94 - (32.2)
5200m - 7:04.12 - (32.1)
5600m - 7:36.44 - (32.3)
6000m - 8:08.66 - (32.2)
6400m - 8:41.26 - (32.5)
6800m - 9:13.59 - (32.3)
7200m - 9:45.83 - (32.2)
7600m - 10:18.10 - (32.2)
8000m - 10:50.44 - (32.3)
8400m - 11:22.74 - (32.2)
8800m - 11:55.10 - (32.3)
9200m - 12:27.32 - (32.2)
9600m - 12:59.29 - (31.9)
10000m - 13:31.06 - (31.7)
47.49 2
14 95 Sindre  Henriksen NOR NOR 13:40.16400m - 35.89 - (35.8)
800m - 1:07.65 - (31.7)
1200m - 1:39.75 - (32.0)
1600m - 2:11.85 - (32.0)
2000m - 2:43.86 - (32.0)
2400m - 3:15.91 - (32.0)
2800m - 3:47.92 - (32.0)
3200m - 4:19.87 - (31.9)
3600m - 4:51.94 - (32.0)
4000m - 5:23.94 - (32.0)
4400m - 5:56.13 - (32.1)
4800m - 6:28.37 - (32.2)
5200m - 7:00.73 - (32.3)
5600m - 7:33.00 - (32.2)
6000m - 8:05.46 - (32.4)
6400m - 8:38.19 - (32.7)
6800m - 9:11.39 - (33.1)
7200m - 9:44.82 - (33.4)
7600m - 10:18.59 - (33.7)
8000m - 10:52.50 - (33.9)
8400m - 11:26.10 - (33.6)
8800m - 11:59.47 - (33.3)
9200m - 12:32.82 - (33.3)
9600m - 13:06.42 - (33.5)
10000m - 13:40.16 - (33.7)
56.59 1
15 68 Hyung-Joon  Joo KOR KOR 13:41.01400m - 36.34 - (36.3)
800m - 1:07.70 - (31.3)
1200m - 1:39.79 - (32.0)
1600m - 2:12.20 - (32.4)
2000m - 2:44.34 - (32.1)
2400m - 3:16.80 - (32.4)
2800m - 3:48.99 - (32.1)
3200m - 4:21.42 - (32.4)
3600m - 4:53.95 - (32.5)
4000m - 5:26.50 - (32.5)
4400m - 5:59.22 - (32.7)
4800m - 6:32.27 - (33.0)
5200m - 7:05.41 - (33.1)
5600m - 7:38.38 - (32.9)
6000m - 8:11.37 - (32.9)
6400m - 8:44.48 - (33.1)
6800m - 9:17.70 - (33.2)
7200m - 9:50.92 - (33.2)
7600m - 10:24.14 - (33.2)
8000m - 10:57.18 - (33.0)
8400m - 11:30.08 - (32.9)
8800m - 12:03.06 - (32.9)
9200m - 12:35.81 - (32.7)
9600m - 13:08.40 - (32.5)
10000m - 13:41.01 - (32.6)
57.44 0
16 45 Fabio  Francolini ITA ITA 13:41.32400m - 36.18 - (36.1)
800m - 1:08.74 - (32.5)
1200m - 1:40.74 - (32.0)
1600m - 2:12.88 - (32.1)
2000m - 2:44.94 - (32.0)
2400m - 3:17.17 - (32.2)
2800m - 3:49.28 - (32.1)
3200m - 4:21.26 - (31.9)
3600m - 4:53.63 - (32.3)
4000m - 5:25.72 - (32.0)
4400m - 5:57.86 - (32.1)
4800m - 6:30.04 - (32.1)
5200m - 7:02.46 - (32.4)
5600m - 7:34.86 - (32.4)
6000m - 8:07.65 - (32.7)
6400m - 8:40.68 - (33.0)
6800m - 9:13.93 - (33.2)
7200m - 9:47.32 - (33.3)
7600m - 10:20.76 - (33.4)
8000m - 10:54.45 - (33.6)
8400m - 11:28.20 - (33.7)
8800m - 12:01.89 - (33.6)
9200m - 12:35.51 - (33.6)
9600m - 13:08.83 - (33.3)
10000m - 13:41.32 - (32.4)
57.75 0
17 25 Longjiang  Sun CHN CHN 13:46.21400m - 35.74 - (35.7)
800m - 1:07.68 - (31.9)
1200m - 1:40.17 - (32.4)
1600m - 2:12.47 - (32.2)
2000m - 2:44.49 - (32.0)
2400m - 3:16.41 - (31.9)
2800m - 3:48.39 - (31.9)
3200m - 4:20.27 - (31.8)
3600m - 4:52.29 - (32.0)
4000m - 5:24.38 - (32.0)
4400m - 5:56.18 - (31.8)
4800m - 6:28.10 - (31.9)
5200m - 6:59.98 - (31.8)
5600m - 7:32.11 - (32.1)
6000m - 8:04.37 - (32.2)
6400m - 8:36.84 - (32.4)
6800m - 9:09.41 - (32.5)
7200m - 9:41.93 - (32.5)
7600m - 10:14.88 - (32.9)
8000m - 10:47.68 - (32.7)
8400m - 11:20.73 - (33.0)
8800m - 11:54.78 - (34.0)
9200m - 12:30.53 - (35.7)
9600m - 13:07.31 - (36.7)
10000m - 13:46.21 - (38.9)
62.64 0
18 69 Cheol-Min  Kim KOR KOR 13:46.49400m - 36.22 - (36.2)
800m - 1:07.71 - (31.4)
1200m - 1:40.38 - (32.6)
1600m - 2:12.88 - (32.5)
2000m - 2:45.40 - (32.5)
2400m - 3:17.84 - (32.4)
2800m - 3:50.62 - (32.7)
3200m - 4:23.12 - (32.5)
3600m - 4:56.02 - (32.8)
4000m - 5:28.72 - (32.7)
4400m - 6:01.84 - (33.1)
4800m - 6:34.94 - (33.1)
5200m - 7:08.08 - (33.1)
5600m - 7:41.23 - (33.1)
6000m - 8:14.17 - (32.9)
6400m - 8:47.38 - (33.2)
6800m - 9:20.81 - (33.4)
7200m - 9:54.09 - (33.2)
7600m - 10:27.47 - (33.3)
8000m - 11:00.76 - (33.2)
8400m - 11:34.14 - (33.3)
8800m - 12:07.30 - (33.1)
9200m - 12:40.59 - (33.2)
9600m - 13:13.65 - (33.0)
10000m - 13:46.49 - (32.8)
62.92 0
19 3 Linus  Heidegger AUT AUT 13:56.64400m - 36.51 - (36.5)
800m - 1:07.90 - (31.3)
1200m - 1:39.98 - (32.0)
1600m - 2:12.39 - (32.4)
2000m - 2:44.86 - (32.4)
2400m - 3:17.11 - (32.2)
2800m - 3:49.68 - (32.5)
3200m - 4:22.24 - (32.5)
3600m - 4:54.94 - (32.6)
4000m - 5:27.73 - (32.7)
4400m - 6:00.46 - (32.7)
4800m - 6:33.63 - (33.1)
5200m - 7:07.13 - (33.5)
5600m - 7:40.25 - (33.1)
6000m - 8:13.53 - (33.2)
6400m - 8:47.07 - (33.5)
6800m - 9:20.86 - (33.7)
7200m - 9:54.77 - (33.9)
7600m - 10:28.82 - (34.0)
8000m - 11:03.41 - (34.5)
8400m - 11:38.01 - (34.6)
8800m - 12:12.66 - (34.6)
9200m - 12:47.63 - (34.9)
9600m - 13:22.02 - (34.3)
10000m - 13:56.64 - (34.6)
73.07 0
20 61 Aoi  Yokoyama JPN JPN 14:00.96400m - 35.75 - (35.7)
800m - 1:07.66 - (31.9)
1200m - 1:40.08 - (32.4)
1600m - 2:13.04 - (32.9)
2000m - 2:45.43 - (32.3)
2400m - 3:17.80 - (32.3)
2800m - 3:50.12 - (32.3)
3200m - 4:22.91 - (32.7)
3600m - 4:55.86 - (32.9)
4000m - 5:29.42 - (33.5)
4400m - 6:02.97 - (33.5)
4800m - 6:36.84 - (33.8)
5200m - 7:10.44 - (33.6)
5600m - 7:44.15 - (33.7)
6000m - 8:17.90 - (33.7)
6400m - 8:51.97 - (34.0)
6800m - 9:26.13 - (34.1)
7200m - 10:00.53 - (34.3)
7600m - 10:34.87 - (34.3)
8000m - 11:09.76 - (34.8)
8400m - 11:44.24 - (34.4)
8800m - 12:18.87 - (34.6)
9200m - 12:53.50 - (34.6)
9600m - 13:27.20 - (33.7)
10000m - 14:00.96 - (33.7)
77.39 0
21 120 Martin  Hänggi SUI SUI 14:07.40400m - 36.29 - (36.2)
800m - 1:08.89 - (32.6)
1200m - 1:41.69 - (32.8)
1600m - 2:13.98 - (32.2)
2000m - 2:46.08 - (32.1)
2400m - 3:18.60 - (32.5)
2800m - 3:50.97 - (32.3)
3200m - 4:23.74 - (32.7)
3600m - 4:56.51 - (32.7)
4000m - 5:29.22 - (32.7)
4400m - 6:02.07 - (32.8)
4800m - 6:34.79 - (32.7)
5200m - 7:07.70 - (32.9)
5600m - 7:40.68 - (32.9)
6000m - 8:13.71 - (33.0)
6400m - 8:46.99 - (33.2)
6800m - 9:20.71 - (33.7)
7200m - 9:54.93 - (34.2)
7600m - 10:29.88 - (34.9)
8000m - 11:05.29 - (35.4)
8400m - 11:41.19 - (35.9)
8800m - 12:17.66 - (36.4)
9200m - 12:54.37 - (36.7)
9600m - 13:30.68 - (36.3)
10000m - 14:07.40 - (36.7)
83.83 0
22 98 Reyon  Kay NZL NZL DNF400m - 35.75 - (35.7)
800m - 1:06.95 - (31.2)
1200m - 1:39.42 - (32.4)
1600m - 2:11.83 - (32.4)
2000m - 2:44.53 - (32.6)
2400m - 3:16.37 - (31.8)
2800m - 3:48.36 - (31.9)
3200m - 4:20.74 - (32.3)
3600m - 4:52.80 - (32.0)
4000m - 5:25.00 - (32.1)
4400m - 5:57.10 - (32.1)
4800m - 6:29.18 - (32.0)
5200m - 7:01.34 - (32.1)
5600m - 7:33.81 - (32.4)
6000m - 8:06.97 - (33.1)
6400m - 8:41.79 - (34.8)
6800m - 9:44.72 - (62.9)
0